Weather History for Mount Sterling, KY

Change the Weather History Date:

Tuesday, November 20, 2012

  Actual Average Record
Temperature  
Mean Temperature 48 °F -  
Max Temperature 60 °F 55 °F 55 °F (2013)
Min Temperature 35 °F 34 °F 30 °F (2013)
Degree Days  
Heating Degree Days 18    
Moisture  
Dew Point 36 °F    
Average Humidity 60    
Maximum Humidity 100    
Minimum Humidity 34    
Precipitation  
Precipitation 0.00 in - - ()
Sea Level Pressure  
Sea Level Pressure 30.14 in    
Wind  
Wind Speed 1 mph ()    
Max Wind Speed 5 mph    
Max Gust Speed -    
Visibility 10.0 miles    
Events Rain    
Averages and records for this station are not official NWS values.
T = Trace of Precipitation, MM = Missing Value Source: Averaged Metar Reports

Daily Weather History Graph

Daily Weather History Graph

Search for Another Location

Airport:

Trip Planner

Search our weather history database for the weather conditions in past years. The results will help you decide how hot, cold, wet, or windy it might be!

Date:

Astronomy

Nov. 20, 2012 Rise Set
Actual Time 7:22 AM EST 5:20 PM EST
Civil Twilight 6:54 AM EST 5:48 PM EST
Nautical Twilight 6:22 AM EST 6:21 PM EST
Astronomical Twilight 5:50 AM EST 6:52 PM EST
Moon 12:59 PM EST (11/20) No Moon Set
Length of Visible Light 10h 54m
Length of Day
9h 57m
Waxing Crescent, 51% of the Moon is Illuminated
Nov 20
Waxing Crescent
Nov 28
Full
Dec 6
Last Quarter
Dec 13
New
Dec 20
First Quarter

Hourly Weather History & Observations

Time (EST) Temp. Windchill Dew Point Humidity Pressure Visibility Wind Dir Wind Speed Gust Speed Precip Events Conditions
12:15 AM 39.2 °F - 35.6 °F 87% 30.20 in 10.0 mi Calm Calm - N/A   Clear
12:35 AM 41.0 °F - 35.6 °F 81% 30.20 in 10.0 mi Calm Calm - N/A   Clear
12:55 AM 41.0 °F - 37.4 °F 87% 30.20 in 10.0 mi Calm Calm - N/A   Clear
1:15 AM 41.0 °F - 37.4 °F 87% 30.19 in 10.0 mi Calm Calm - N/A   Clear
1:35 AM 39.2 °F - 35.6 °F 87% 30.18 in 10.0 mi Calm Calm - N/A   Clear
1:55 AM 37.4 °F - 35.6 °F 93% 30.18 in 10.0 mi Calm Calm - N/A   Clear
2:15 AM 37.4 °F - 35.6 °F 93% 30.18 in 10.0 mi Calm Calm - N/A   Clear
2:35 AM 41.0 °F - 37.4 °F 87% 30.18 in 10.0 mi Calm Calm - N/A   Clear
2:55 AM 39.2 °F - 35.6 °F 87% 30.18 in 10.0 mi Calm Calm - N/A   Clear
3:15 AM 37.4 °F 33.8 °F 35.6 °F 93% 30.18 in 10.0 mi WSW 4.6 mph - N/A   Clear
3:35 AM 37.4 °F 33.8 °F 35.6 °F 93% 30.18 in 10.0 mi West 4.6 mph - N/A   Clear
7:15 AM 37.4 °F - 35.6 °F 93% 30.17 in 10.0 mi Calm Calm - N/A   Clear
7:35 AM 37.4 °F - 35.6 °F 93% 30.17 in 10.0 mi Calm Calm - N/A   Clear
7:55 AM 37.4 °F - 35.6 °F 93% 30.18 in 10.0 mi Calm Calm - N/A   Clear
8:15 AM 35.6 °F 31.7 °F 35.6 °F 100% 30.18 in 10.0 mi SSW 4.6 mph - N/A   Clear
8:35 AM 41.0 °F - 35.6 °F 81% 30.18 in 10.0 mi Calm Calm - N/A   Mostly Cloudy
8:55 AM 37.4 °F - 35.6 °F 93% 30.18 in 10.0 mi Calm Calm - N/A   Scattered Clouds
9:15 AM 44.6 °F - 37.4 °F 76% 30.18 in 10.0 mi Calm Calm - N/A   Clear
9:35 AM 48.2 °F - 37.4 °F 66% 30.18 in 10.0 mi Calm Calm - N/A   Scattered Clouds
9:55 AM 50.0 °F - 37.4 °F 62% 30.18 in 10.0 mi Calm Calm - N/A   Scattered Clouds
10:15 AM 53.6 °F - 37.4 °F 54% 30.18 in 10.0 mi Calm Calm - N/A   Clear
10:35 AM 55.4 °F - 35.6 °F 47% 30.18 in 10.0 mi Calm Calm - N/A   Clear
10:55 AM 55.4 °F - 33.8 °F 44% 30.18 in 10.0 mi Calm Calm - N/A   Scattered Clouds
11:15 AM 57.2 °F - 33.8 °F 41% 30.18 in 10.0 mi Calm Calm - N/A   Scattered Clouds
11:35 AM 57.2 °F - 32.0 °F 38% 30.17 in 10.0 mi Calm Calm - N/A   Scattered Clouds
11:55 AM 59.0 °F - 33.8 °F 39% 30.16 in 10.0 mi Calm Calm - N/A   Scattered Clouds
12:15 PM 60.8 °F - 32.0 °F 34% 30.15 in 10.0 mi Calm Calm - N/A   Mostly Cloudy
12:35 PM 59.0 °F - 33.8 °F 39% 30.14 in 10.0 mi Calm Calm - N/A   Overcast
12:55 PM 60.8 °F - 33.8 °F 36% 30.13 in 10.0 mi Calm Calm - N/A   Overcast
1:15 PM 60.8 °F - 33.8 °F 36% 30.13 in 10.0 mi SSW 3.5 mph - N/A   Overcast
1:35 PM 60.8 °F - 33.8 °F 36% 30.12 in 10.0 mi West 4.6 mph - N/A   Overcast
1:55 PM 60.8 °F - 33.8 °F 36% 30.11 in 10.0 mi West 3.5 mph - N/A   Scattered Clouds
2:15 PM 60.8 °F - 32.0 °F 34% 30.10 in 10.0 mi Calm Calm - N/A   Clear
2:35 PM 60.8 °F - 33.8 °F 36% 30.10 in 10.0 mi Calm Calm - N/A   Mostly Cloudy
2:55 PM 60.8 °F - 33.8 °F 36% 30.09 in 10.0 mi Calm Calm - N/A   Overcast
3:15 PM 60.8 °F - 33.8 °F 36% 30.09 in 10.0 mi NW 4.6 mph - N/A   Overcast
3:35 PM 60.8 °F - 33.8 °F 36% 30.08 in 10.0 mi NW 3.5 mph - N/A   Overcast
3:55 PM 60.8 °F - 33.8 °F 36% 30.09 in 10.0 mi Calm Calm - N/A   Overcast
4:15 PM 60.8 °F - 35.6 °F 39% 30.08 in 10.0 mi Calm Calm - N/A   Overcast
4:35 PM 59.0 °F - 35.6 °F 42% 30.09 in 10.0 mi Calm Calm - N/A   Overcast
4:55 PM 59.0 °F - 35.6 °F 42% 30.08 in 10.0 mi Calm Calm - N/A   Overcast
5:15 PM 59.0 °F - 35.6 °F 42% 30.09 in 10.0 mi Calm Calm - N/A   Overcast
5:35 PM 57.2 °F - 35.6 °F 44% 30.09 in 10.0 mi Calm Calm - N/A   Overcast
5:55 PM 57.2 °F - 35.6 °F 44% 30.09 in 10.0 mi Calm Calm - N/A   Overcast
6:15 PM 55.4 °F - 35.6 °F 47% 30.10 in 10.0 mi Calm Calm - N/A   Overcast
6:35 PM 55.4 °F - 35.6 °F 47% 30.10 in 10.0 mi Calm Calm - N/A   Overcast
6:55 PM 53.6 °F - 35.6 °F 51% 30.10 in 10.0 mi Calm Calm - N/A   Mostly Cloudy
7:15 PM 53.6 °F - 35.6 °F 51% 30.11 in 10.0 mi Calm Calm - N/A   Overcast
7:35 PM 51.8 °F - 37.4 °F 58% 30.12 in 10.0 mi Calm Calm - N/A   Overcast
7:55 PM 51.8 °F - 37.4 °F 58% 30.12 in 10.0 mi East 3.5 mph - N/A   Overcast
8:15 PM 51.8 °F - 37.4 °F 58% 30.13 in 10.0 mi Calm Calm - N/A   Overcast
8:35 PM 53.6 °F - 37.4 °F 54% 30.13 in 10.0 mi Calm Calm - N/A   Overcast
8:55 PM 53.6 °F - 35.6 °F 51% 30.13 in 10.0 mi Calm Calm - N/A   Overcast
9:15 PM 51.8 °F - 39.2 °F 62% 30.13 in 10.0 mi Calm Calm - N/A   Overcast
9:35 PM 51.8 °F - 37.4 °F 58% 30.14 in 10.0 mi Calm Calm - N/A   Overcast
9:55 PM 50.0 °F - 41.0 °F 71% 30.13 in 10.0 mi Calm Calm - N/A Rain Light Rain
10:15 PM 51.8 °F - 39.2 °F 62% 30.14 in 10.0 mi Calm Calm - N/A   Overcast
10:35 PM 51.8 °F - 39.2 °F 62% 30.13 in 10.0 mi Calm Calm - N/A   Overcast
10:55 PM 50.0 °F - 39.2 °F 66% 30.14 in 10.0 mi Calm Calm - N/A   Overcast
11:15 PM 50.0 °F - 37.4 °F 62% 30.14 in 10.0 mi Calm Calm - N/A   Overcast
11:35 PM 50.0 °F - 37.4 °F 62% 30.14 in 10.0 mi Calm Calm - N/A   Overcast
11:55 PM 50.0 °F - 37.4 °F 62% 30.14 in 10.0 mi East 3.5 mph - N/A   Overcast